Other Public Products
Issued by NWS Grand Forks, ND

Home | Current Version | Previous Version | Graphics & Text | Print | Product List | Glossary On
Versions: 1 2 3 4 5 6 7 8 9 10 11 12 13 14 15 16 17 18 19 20 21 22 23 24 25 26 27 28 29 30 31 32 33 34 35 36 37 38 39 40 41 42 43 44 45 46 47 48 49 50
000
FPUS83 KFGF 172110
OPUFGF
PRAIRIE TO PINES WEATHER ROUNDUP
NATIONAL WEATHER SERVICE EASTERN NORTH DAKOTA/GRAND FORKS ND
300 PM CST WED DEC 17 2014

 **SATELLITE DATA USED TO AUGMENT SKY COVER AT AUTOMATED STATIONS**
 *****  WEATHER ACROSS EASTERN NORTH DAKOTA  *****

CITY           SKY/WX    TMP DP  RH WIND       PRES   REMARKS
GRAND FORKS    MOSUNNY   18  10  71 NE6       30.33F WCI  10
GRAND FORKS AF SUNNY     17  12  80 VRB1      30.33F
GRAND CITY NWS NOT AVBL
BUXTON         NOT AVBL
DEVILS LAKE    SUNNY     16   1  53 S5        30.26R WCI   9
FARGO          SUNNY     19  11  70 NE6       30.31F WCI  11
WAHPETON ARPT  CLEAR     19  12  73 CALM      30.31F
$$

 *****  WEATHER ACROSS CENTRAL AND WESTERN NORTH DAKOTA  *****

CITY           SKY/WX    TMP DP  RH WIND       PRES   REMARKS
JAMESTOWN      SUNNY     18  10  71 E6        30.25F WCI  10
BISMARCK       MOSUNNY   19  10  68 SE12      30.20F WCI   7
MINOT          MOSUNNY   17   9  70 SE10      30.18F WCI   5
MINOT AFB      MOSUNNY   16  13  86 SE13      30.18F WCI   2
GARRISON         N/A     16  11  80 SE10      30.16F WCI   4
WILLISTON      CLOUDY    21  13  71 SE10      30.10F WCI  10
DICKINSON      LGT SNOW  18  13  80 SE13      30.05F WCI   5
HETTINGER      CLOUDY    17  14  88 SE12      30.07S WCI   4
$$

 *****  OTHER OBSERVATIONS NORTHEAST NORTH DAKOTA  *****

CITY           SKY/WX    TMP DP  RH WIND       PRES   REMARKS
WALHALLA         N/A     16  10  79 E3        30.33F
LANGDON        FAIR      16   9  73 E5        30.26S WCI   9
CAVALIER       FAIR      18  10  73 NE3       30.34F
GRAFTON        NOT AVBL
CANDO          FAIR      14   9  79 S7        30.27S WCI   4
FORT TOTTEN    NOT AVBL
ROLLA          FAIR      14   9  79 S8        30.23S WCI   3
RUGBY          FAIR      16   9  73 S9        30.23F WCI   4
 ***** THE ABOVE OBSERVATIONS ARE NON NWS ARE NOT QUALITY
        CONTROLLED AND MAY MIS-REPORT RAIN FOR SNOW...
$$

 *****  OTHER OBSERVATIONS SOUTHEAST NORTH DAKOTA *****

CITY           SKY/WX    TMP DP  RH WIND       PRES   REMARKS
COOPERSTOWN    NOT AVBL
VALLEY CITY    MOCLDY    18  14  86 NE6       30.28S WCI   9
OAKES            N/A     19  12  73 E3        30.27F
GWINNER        CLEAR     21  14  73 MISG      30.29F
BUFFALO        NOT AVBL
WYNDMERE         N/A     19  12  73 NE5         N/A  WCI  13
 ***** THE ABOVE OBSERVATIONS ARE NON NWS ARE NOT QUALITY
       CONTROLLED AND MAY MIS-REPORT RAIN FOR SNOW...
$$

  *****  WEATHER ACROSS NORTHERN MINNESOTA  *****

CITY           SKY/WX    TMP DP  RH WIND       PRES   REMARKS
FLAG ISLAND    CLEAR     16   9  73 CALM      30.32R
WARROAD        CLOUDY    12   7  79 CALM      30.33S
ROSEAU         CLOUDY    16   9  73 CALM      30.33S
HALLOCK        CLEAR     18  10  73 CALM      30.35S
THF RVR FALLS  CLOUDY    16  12  86 NW3       30.32S
HALSTAD          N/A     20   9  62 NE5         N/A  WCI  13
FOSSTON        MOSUNNY   19  12  73 CALM      30.30F
BAUDETTE       CLEAR     19  10  68 NW6       30.30S WCI  11
WASKISH        CLEAR     19  14  79 CALM      30.30R
CROOKSTON      MOSUNNY   18  12  79 N3        30.34F
$$
  *****  WEATHER ACROSS CENTRAL AND WEST MINNESOTA  *****

CITY           SKY/WX    TMP DP  RH WIND       PRES   REMARKS
BEMIDJI        SUNNY     20  13  73 NW6       30.28R WCI  13
PARK RAPIDS    SUNNY     22  12  65 VRB3      30.26S
WADENA         SUNNY     18  10  73 CALM      30.27S
DETROIT LAKES  MIX PCPN  16  12  86 N6        30.29S WCI   7
MOORHEAD       SUNNY     18  16  93 N5        30.32F WCI  11
FERGUS FALLS   SUNNY     16   9  73 N5        30.32F WCI   9
ELBOW LAKE     FAIR      14   9  81 N7        30.28F WCI   4
MORRIS MN      SUNNY     18  10  73 N9        30.28R WCI   6
STAPLES        MOSUNNY   18  10  73 CALM      30.27F
WHEATON        SUNNY     12   9  85 W7        30.33S WCI   2
$$
  *****  WEATHER ELSEWHERE ACROSS MINNESOTA  *****

CITY           SKY/WX    TMP DP  RH WIND       PRES   REMARKS
DULUTH         CLOUDY    20  11  68 N7        30.24R WCI  11
INTRNTL FALLS  CLEAR     19   5  54 N6        30.30R WCI  11
ELY            PTCLDY    18  10  73 N5        30.25R WCI  11
CLOQUET        FLURRIES  18  10  73 CALM      30.26R
BRAINERD       SUNNY     18   9  68 N6        30.28S WCI  10
HIBBING        CLEAR     22  10  60 N8        30.25R WCI  12
ALEXANDRIA     SUNNY     17  10  74 N9        30.26F WCI   6
SAINT CLOUD    MOSUNNY   19   9  65 N7        30.28F WCI  10
MINNEAPOLIS    MOSUNNY   19  10  68 N9        30.29S WCI   8
$$

  *****  WEATHER ACROSS SOUTH DAKOTA  *****

CITY           SKY/WX    TMP DP  RH WIND       PRES   REMARKS
SIOUX FALLS    PTSUNNY   19   9  65 NE5       30.25F WCI  12
BROOKINGS      NOT AVBL
WATERTOWN      SUNNY     20  13  74 N5        30.23F WCI  13
HURON          MOSUNNY   14  10  84 SE3       30.27S
SISSETON         N/A     16  10  77 N5        30.29F WCI   9
ABERDEEN       SUNNY     20  11  68 E7        30.26F WCI  11
MITCHELL         N/A     18  13  80 MISG      30.26F
PIERRE         CLOUDY    18  14  84 SE15      30.15F WCI   4
MOBRIDGE       MOSUNNY   20  11  68 S12       30.16F WCI   8
RAPID CITY     CLOUDY    23  20  88 E6        29.97F WCI  16
$$

  *****  SOME WEATHER IN NEARBY STATES *****

CITY           SKY/WX    TMP DP  RH WIND       PRES   REMARKS
GLASGOW MT     CLOUDY    22  17  81 E14       29.99F WCI   9
GREAT FALLS MT MOSUNNY   39  31  72 SW10      29.84F
CHEYENNE WY    CLOUDY    45  21  38 SW6       29.88S
SCOTTSBLUFF NE MOSUNNY   22  19  89 SE10      29.94F WCI  11
OMAHA NE       PTSUNNY   28  16  60 CALM      30.28F
DES MOINES IA  PTSUNNY   30  14  51 N6        30.28S WCI  24
DAVENPORT IA   SUNNY     26  15  63 NW12      30.26R WCI  16
CHICAGO IL     CLOUDY    26  16  65 W13       30.21R WCI  15
EAU CLAIRE WI  CLOUDY    19  10  68 N7        30.27S WCI  10
LA CROSSE WI   PTSUNNY   24  12  60 NW8       30.28S WCI  15
$$

  *****  SOME NATIONAL WEATHER *****

CITY           SKY/WX    TMP DP  RH WIND       PRES   REMARKS
LA GUARDIA NY  CLOUDY    50  36  58 NW18G25   29.83R
RALEIGH NC     PTCLDY    58  35  42 VRB5      30.02F
ATLANTA GA     PTSUNNY   47  37  68 W12       30.14S
NEW ORLEANS LA PTSUNNY   57  41  55 NE5       30.20F
OKLAHOMA CITY  LGT RAIN  38  34  85 E7        30.10F FOG
ALBUQUERQUE NM PTSUNNY   42  34  73 S5        29.97F
SALT LAKE CITY CLOUDY    39  31  72 W5        29.98S
LOS ANGELES CA PTSUNNY   60  49  66 W10       30.06R
BOISE ID       MOSUNNY   46  33  60 E3        29.94F
SEATTLE WA     CLOUDY    48  40  73 VRB3      29.84S
$$

*** WEATHER ACROSS MANITOBA...SASKATCHEWAN AND ONTARIO ***
                ***ONTARIO***

CITY           SKY/WX    TMP DP  RH WIND       PRES   REMARKS
GERALDTON      PTCLDY     9   1  72 NW7       30.25R WCI  -3
THUNDER BAY    NOT AVBL
SIOUX LOOKOUT  PTCLDY    10   0  61 CALM      30.32S
TORONTO        NOT AVBL
BIG TROUT LK   CLEAR      7   3  85 W8        30.28R WCI  -6
PICKLE LAKE    PTCLDY     9   5  85 W2        30.31S
DRYDEN         CLEAR     12   3  67 NE3       30.31S
KENORA         PTCLDY    18   3  53 N3        30.31S
$$
                *** MANITOBA***

CITY           SKY/WX    TMP DP  RH WIND       PRES   REMARKS
BRANDON        NOT AVBL
DAUPHIN        CLEAR     12   5  73 E3        30.25F
ISLAND LAKE    CLEAR     10   7  85 SW6       30.29S WCI   1
PILOT MOUND      N/A     12  10  92 SE6         N/A  WCI   3
THE PAS        FLURRIES  18  12  79 S8        30.17S WCI   7
THOMPSON       FLURRIES  16  12  86 SW12      30.16S WCI   3
WINNIPEG       PTCLDY    14   5  67 SE2       30.36F
LYNN LAKE      FLURRIES  14  14 100 SW10      30.06S WCI   1
GILLAM         FLURRIES  16  12  86 W14       30.15S WCI   1
$$
                ***SASKATCHEWAN***

CITY           SKY/WX    TMP DP  RH WIND       PRES   REMARKS
ESTEVAN        FLURRIES  19  12  73 S13       30.12F WCI   7
KINDERSLEY     NOT AVBL
LLOYDMINSTER   NOT AVBL
PRINCE ALBERT  CLOUDY    19  14  79 S9        30.07S WCI   9
REGINA         CLOUDY    18  14  86 S17       30.07F WCI   2
YORKTON        FLURRIES  14  10  85 SE8       30.15F WCI   3
N. BATTLEFORD  CLOUDY    18  16  93 SE12G17   29.99F WCI   5



USA.gov is the U.S. government's official web portal to all federal, state and local government web resources and services.